KE6AFE Weather Reports


time (UTC)temp
F
wind
direction
speed
knots
gust
knots
rain 1hr
in
rain 24hr
in
rain mn
in
humidity
%
barometer
mb
20220629033341 70 172 0.0 0.0 0.00 0.00 0.00 52 1015.7
20220629032331 70 172 0.0 0.0 0.00 0.00 0.00 51 1015.6
20220629031321 71 172 0.0 0.0 0.00 0.00 0.00 50 1015.7
20220629030311 71 172 0.0 0.0 0.00 0.00 0.00 50 1015.7
20220629025301 72 182 0.0 0.0 0.00 0.00 0.00 49 1015.7
20220629024251 72 184 0.0 0.0 0.00 0.00 0.00 48 1015.7
20220629023241 73 181 0.0 0.9 0.00 0.00 0.00 48 1015.7
20220629022231 73 151 0.0 1.7 0.00 0.00 0.00 47 1015.8
20220629021221 73 113 0.0 0.9 0.00 0.00 0.00 47 1015.6
20220629020211 74 107 0.0 0.0 0.00 0.00 0.00 46 1015.6
20220629015201 75 116 0.9 2.6 0.00 0.00 0.00 44 1015.6
20220629014151 75 123 0.9 4.3 0.00 0.00 0.00 44 1015.6
20220629013141 76 122 0.9 2.6 0.00 0.00 0.00 43 1015.6
20220629012131 77 120 0.9 2.6 0.00 0.00 0.00 41 1015.6
20220629011121 78 124 0.0 1.7 0.00 0.00 0.00 41 1015.6
20220629010111 78 126 0.0 1.7 0.00 0.00 0.00 40 1015.7
20220629005101 79 132 0.9 0.0 0.00 0.00 0.00 38 1015.9
20220629004051 80 130 0.9 2.6 0.00 0.00 0.00 37 1015.9
20220629003041 81 135 0.0 0.9 0.00 0.00 0.00 37 1016.0
20220629002031 82 135 0.0 2.6 0.00 0.00 0.00 36 1016.0
20220629001021 82 117 0.0 4.3 0.00 0.00 0.00 36 1016.0
20220629000011 83 107 0.0 2.6 0.00 0.00 0.00 34 1016.1
20220628235001 84 100 0.0 1.7 0.00 0.00 0.00 34 1016.0
20220628233951 83 123 0.0 1.7 0.00 0.00 0.00 35 1016.1
20220628232941 84 93 0.0 2.6 0.00 0.00 0.00 33 1016.1
20220628231931 85 117 0.0 0.9 0.00 0.00 0.00 33 1016.1
20220628230921 85 106 0.9 2.6 0.00 0.00 0.00 32 1016.1
20220628225911 85 137 0.9 2.6 0.00 0.00 0.00 33 1016.1
20220628224901 85 132 1.7 6.1 0.00 0.00 0.00 32 1016.1
20220628223851 85 130 0.0 2.6 0.00 0.00 0.00 32 1016.2
20220628222841 85 135 0.9 2.6 0.00 0.00 0.00 33 1016.3
20220628221831 84 156 0.9 2.6 0.00 0.00 0.00 34 1016.4
20220628220821 84 146 0.0 0.0 0.00 0.00 0.00 36 1016.5
20220628215811 83 152 0.9 2.6 0.00 0.00 0.00 37 1016.6
20220628214759 83 157 0.0 0.9 0.00 0.00 0.00 39 1016.6
20220628213749 82 162 0.9 4.3 0.00 0.00 0.00 40 1016.6
20220628212739 81 166 0.0 0.9 0.00 0.00 0.00 41 1016.7
20220628211729 81 195 0.9 0.0 0.00 0.00 0.00 43 1016.7
20220628210719 80 196 0.9 2.6 0.00 0.00 0.00 43 1016.7
20220628205709 79 154 1.7 2.6 0.00 0.00 0.00 45 1016.8
20220628204659 78 166 1.7 2.6 0.00 0.00 0.00 45 1016.9
20220628203649 78 181 0.0 0.0 0.00 0.00 0.00 45 1016.8
20220628202639 77 182 0.0 0.0 0.00 0.00 0.00 46 1016.9
20220628201629 76 180 0.0 0.0 0.00 0.00 0.00 46 1016.9
20220628200619 75 187 0.0 0.0 0.00 0.00 0.00 47 1016.9
20220628195609 74 182 0.0 0.0 0.00 0.00 0.00 48 1017.0
20220628194559 74 188 0.0 0.0 0.00 0.00 0.00 50 1017.0
20220628193549 73 179 0.0 0.0 0.00 0.00 0.00 52 1017.1
20220628192539 72 170 0.0 0.0 0.00 0.00 0.00 53 1017.2
20220628191529 71 170 0.0 0.0 0.00 0.00 0.00 55 1017.2
20220628190519 71 173 0.0 0.0 0.00 0.00 0.00 56 1017.2
20220628185509 70 169 0.0 0.0 0.00 0.00 0.00 57 1017.2
20220628184459 69 175 0.0 0.0 0.00 0.00 0.00 58 1017.1
20220628183449 68 178 0.0 0.0 0.00 0.00 0.00 61 1017.1
20220628182439 67 182 0.0 0.0 0.00 0.00 0.00 61 1017.2
20220628181429 67 182 0.0 0.0 0.00 0.00 0.00 62 1017.3
20220628180419 66 180 0.0 0.0 0.00 0.00 0.00 63 1017.2
20220628175409 65 184 0.0 0.0 0.00 0.00 0.00 64 1017.1
20220628174359 65 183 0.0 0.0 0.00 0.00 0.00 63 1017.2
20220628173349 65 192 0.0 0.0 0.00 0.00 0.00 64 1017.2
20220628172339 65 203 0.0 0.0 0.00 0.00 0.00 64 1017.1
20220628171329 64 205 0.0 0.0 0.00 0.00 0.00 65 1017.1
20220628170319 63 154 0.0 0.0 0.00 0.00 0.00 67 1017.1
20220628165540 63 155 0.0 0.0 0.00 0.00 0.00 68 1017.1
20220628165309 63 155 0.0 0.0 0.00 0.00 0.00 68 1017.1
20220628164259 62 155 0.0 0.0 0.00 0.00 0.00 69 1017.2
20220628163249 61 154 0.0 0.0 0.00 0.00 0.00 70 1017.2
20220628162239 61 154 0.0 0.0 0.00 0.00 0.00 72 1017.2
20220628161229 60 155 0.0 0.0 0.00 0.00 0.00 73 1017.3
20220628160219 60 154 0.0 0.0 0.00 0.00 0.00 73 1017.3
20220628155209 59 154 0.0 0.0 0.00 0.00 0.00 73 1017.3
20220628154159 59 154 0.0 0.0 0.00 0.00 0.00 73 1017.3
20220628153149 59 154 0.0 0.0 0.00 0.00 0.00 73 1017.3
20220628152139 59 154 0.0 0.0 0.00 0.00 0.00 73 1017.1
20220628151129 59 153 0.0 0.0 0.00 0.00 0.00 72 1017.1
20220628150119 60 150 0.0 0.0 0.00 0.00 0.00 72 1017.0
20220628145109 59 146 0.0 0.0 0.00 0.00 0.00 73 1016.9
20220628144059 58 146 0.0 0.0 0.00 0.00 0.00 73 1016.7
20220628143049 57 146 0.0 0.0 0.00 0.00 0.00 75 1016.6
20220628142039 56 146 0.0 0.0 0.00 0.00 0.00 76 1016.6
20220628141029 56 146 0.0 0.0 0.00 0.00 0.00 77 1016.5
20220628140019 55 146 0.0 0.0 0.00 0.00 0.00 77 1016.5
20220628135009 55 146 0.0 0.0 0.00 0.00 0.00 78 1016.4
20220628133959 55 146 0.0 0.0 0.00 0.00 0.00 78 1016.5
20220628132949 55 145 0.0 0.0 0.00 0.00 0.00 78 1016.5
20220628131939 55 146 0.0 0.0 0.00 0.00 0.00 77 1016.4
20220628130929 55 146 0.0 0.0 0.00 0.00 0.00 77 1016.4
20220628125919 55 146 0.0 0.0 0.00 0.00 0.00 78 1016.4
20220628124909 54 146 0.0 0.0 0.00 0.00 0.00 77 1016.5
20220628123859 54 146 0.0 0.0 0.00 0.00 0.00 77 1016.3
20220628122849 54 146 0.0 0.0 0.00 0.00 0.00 77 1016.3
20220628121839 54 146 0.0 0.0 0.00 0.00 0.00 76 1016.3
20220628120829 54 146 0.0 0.0 0.00 0.00 0.00 75 1016.3
20220628115819 54 146 0.0 0.0 0.00 0.00 0.00 75 1016.3
20220628114809 54 146 0.0 0.0 0.00 0.00 0.00 74 1016.2
20220628113759 54 146 0.0 0.0 0.00 0.00 0.00 74 1016.2
20220628112749 54 146 0.0 0.0 0.00 0.00 0.00 74 1016.3
20220628111739 54 146 0.0 0.0 0.00 0.00 0.00 73 1016.2
20220628110729 54 146 0.0 0.0 0.00 0.00 0.00 73 1016.1
20220628105719 55 146 0.0 0.0 0.00 0.00 0.00 73 1016.2
20220628104709 55 146 0.0 0.0 0.00 0.00 0.00 73 1016.2
20220628103659 55 146 0.0 0.0 0.00 0.00 0.00 73 1016.1
20220628102649 55 146 0.0 0.0 0.00 0.00 0.00 73 1016.2
20220628101639 55 146 0.0 0.0 0.00 0.00 0.00 73 1016.3
20220628100629 55 146 0.0 0.0 0.00 0.00 0.00 73 1016.4
20220628100117 56 146 0.0 0.0 0.00 0.00 0.00 73 1016.5
20220628095619 56 146 0.0 0.0 0.00 0.00 0.00 73 1016.5
20220628094609 56 146 0.0 0.0 0.00 0.00 0.00 72 1016.5
20220628093559 56 146 0.0 0.0 0.00 0.00 0.00 72 1016.5
20220628092549 56 146 0.0 0.0 0.00 0.00 0.00 71 1016.5
20220628091539 57 146 0.0 0.0 0.00 0.00 0.00 71 1016.5
20220628090529 57 146 0.0 0.0 0.00 0.00 0.00 71 1016.6
20220628085519 57 146 0.0 0.0 0.00 0.00 0.00 71 1016.6
20220628084509 57 146 0.0 0.0 0.00 0.00 0.00 71 1016.6
20220628083459 58 146 0.0 0.0 0.00 0.00 0.00 72 1016.6
20220628082449 58 146 0.0 0.0 0.00 0.00 0.00 71 1016.7
20220628081439 58 146 0.0 0.0 0.00 0.00 0.00 71 1016.8
20220628080429 59 146 0.0 0.0 0.00 0.00 0.00 71 1016.8
20220628075419 59 146 0.0 0.0 0.00 0.00 0.00 71 1016.9
20220628074409 59 146 0.0 0.0 0.00 0.00 0.00 72 1016.9
20220628073359 59 146 0.0 0.0 0.00 0.00 0.00 72 1016.9
20220628072349 59 146 0.0 0.0 0.00 0.00 0.00 71 1016.9
20220628071339 59 146 0.0 0.0 0.00 0.00 0.00 72 1016.9
20220628070329 59 146 0.0 0.0 0.00 0.00 0.00 72 1016.9
20220628065319 59 146 0.0 0.0 0.00 0.00 0.00 72 1017.0
20220628064309 60 146 0.0 0.0 0.00 0.00 0.00 71 1016.9
20220628063259 60 146 0.0 0.0 0.00 0.00 0.00 70 1016.9
20220628062249 60 146 0.0 0.0 0.00 0.00 0.00 69 1016.9
20220628061239 60 146 0.0 0.0 0.00 0.00 0.00 69 1016.9
20220628060229 61 146 0.0 0.0 0.00 0.00 0.00 69 1016.9
20220628055219 61 146 0.0 0.0 0.00 0.00 0.00 69 1017.0
20220628054209 61 146 0.0 0.0 0.00 0.00 0.00 67 1017.0
20220628053159 61 146 0.0 0.0 0.00 0.00 0.00 67 1016.9
20220628052149 62 146 0.0 0.0 0.00 0.00 0.00 66 1016.9
20220628051139 62 146 0.0 0.0 0.00 0.00 0.00 66 1016.9
20220628050129 62 146 0.0 0.0 0.00 0.00 0.00 67 1016.9
20220628045119 63 146 0.0 0.0 0.00 0.00 0.00 66 1016.9
20220628044109 63 146 0.0 0.0 0.00 0.00 0.00 65 1016.8
20220628043059 63 146 0.0 0.0 0.00 0.00 0.00 65 1016.7
20220628042049 63 146 0.0 0.0 0.00 0.00 0.00 65 1016.7
20220628041039 64 146 0.0 0.0 0.00 0.00 0.00 64 1016.7
20220628040029 65 146 0.0 0.0 0.00 0.00 0.00 63 1016.7
20220628035019 65 146 0.0 0.0 0.00 0.00 0.00 62 1016.6
20220628034009 65 146 0.0 0.0 0.00 0.00 0.00 62 1016.7